GEFSGL_500_meanwind_192.txt.gz
Wind_Speed
20 21 21 21 20 20 20 20 20 21 21 22 22 21 21 21 21 21 20 20 19 19 19 19 19 20 20 20 20 19 19 20 20 20 20 21 21 21 21 23 23 24 25
19 19 19 19 19 19 19 19 19 20 21 21 20 20 20 20 19 19 19 19 19 19 19 19 19 19 19 19 19 19 18 19 19 19 19 20 20 20 20 21 21 23 23
19 18 18 19 19 19 18 18 19 20 20 20 19 19 19 18 19 19 19 19 18 18 18 18 18 18 18 18 18 18 18 18 18 18 18 19 20 20 20 20 21 21 22
18 17 18 18 18 18 18 18 19 19 19 19 19 18 18 18 18 18 18 19 18 18 18 17 18 17 17 17 17 18 18 18 17 18 18 19 20 20 20 20 21 20 21
18 17 18 17 17 18 18 19 19 18 19 18 18 18 18 18 17 17 17 18 17 17 17 17 16 16 16 16 16 17 17 17 17 18 18 18 18 18 19 20 20 20 20
18 18 18 18 18 18 19 19 19 18 18 19 18 18 18 18 18 17 17 16 16 16 16 15 15 15 15 15 15 15 16 16 16 16 17 17 17 17 18 18 19 19 20
17 17 17 18 18 18 18 19 19 18 18 18 18 18 18 18 18 18 17 16 15 14 14 13 13 13 13 13 13 14 14 14 14 15 15 16 16 16 17 17 18 18 18
17 17 17 18 18 18 18 18 18 18 18 18 18 19 19 18 17 16 15 14 13 13 12 12 12 12 12 12 12 13 13 14 14 13 14 14 15 15 15 16 16 17 17
16 16 17 16 16 17 17 18 18 18 18 18 18 18 18 17 17 16 14 13 12 12 12 12 12 12 12 13 13 13 13 14 14 14 14 14 15 16 17 17 17 17 17
15 15 16 16 16 16 16 17 17 17 17 17 17 17 16 16 15 14 13 12 12 12 12 12 13 13 13 13 13 13 13 13 14 14 14 14 15 16 17 17 17 16 17
14 14 14 15 14 14 14 14 15 16 16 16 15 15 15 15 14 13 13 12 12 12 13 12 13 13 14 14 14 14 14 14 14 14 15 16 15 15 16 16 17 17 18
11 11 12 13 12 11 12 13 13 14 14 14 15 15 15 15 15 14 14 13 12 12 13 13 14 15 15 15 15 15 15 15 15 15 15 15 15 15 16 16 17 18 19
10 10 11 11 10 10 10 12 12 13 13 13 14 13 14 15 15 15 14 14 14 14 15 15 15 15 15 16 16 16 16 16 16 16 15 15 15 15 16 16 17 18 19
9 9 9 9 9 9 9 10 11 12 12 13 13 14 14 15 15 15 15 14 14 15 15 15 16 17 17 18 18 18 19 18 18 17 17 17 16 16 17 17 18 18 19
7 8 7 8 8 8 9 10 11 12 13 13 14 14 15 15 15 15 15 15 15 15 16 16 16 17 17 17 18 18 18 18 18 18 18 18 18 18 18 18 18 19 20
6 6 6 7 7 8 9 10 11 12 12 13 13 14 15 15 15 16 16 16 16 16 16 16 17 17 18 18 18 19 19 19 19 18 18 18 18 18 18 18 19 20 21
5 5 4 5 7 7 9 10 11 11 12 13 14 14 15 16 15 15 15 16 16 17 17 18 18 18 19 19 19 19 20 20 19 19 18 18 19 19 19 19 19 20 21
5 4 4 6 7 8 9 10 11 11 12 12 13 14 15 16 16 16 17 17 18 18 19 19 20 19 20 20 20 20 20 21 20 19 19 19 18 18 19 19 19 19 20
4 4 5 5 7 8 9 10 11 12 12 13 13 14 15 15 16 17 17 18 18 19 20 21 21 21 21 22 22 21 21 21 20 20 19 19 19 19 19 19 20 20 20
4 5 5 6 7 8 9 10 11 12 13 13 14 14 15 16 17 18 18 19 19 20 21 22 22 22 22 23 22 22 21 21 21 20 20 20 21 21 20 20 21 21 20
4 5 5 6 7 8 9 10 12 13 13 14 14 15 16 17 18 18 19 20 21 21 22 23 23 23 23 23 23 22 22 22 21 21 21 20 20 21 21 21 20 20 20
5 5 6 7 7 8 10 11 12 13 14 14 15 16 17 17 18 19 20 21 22 22 23 23 23 23 23 23 23 23 23 23 23 22 22 21 20 20 21 21 21 21 21
5 6 6 7 8 9 10 11 12 13 14 15 16 17 17 18 18 19 20 21 22 23 24 24 24 23 23 23 23 23 23 23 23 23 23 22 22 21 22 22 21 21 21
5 6 6 7 8 9 10 11 13 14 15 16 16 17 17 18 18 19 20 21 23 24 25 25 25 24 24 24 24 24 24 24 24 23 23 23 23 23 22 22 22 22 22
6 6 7 8 9 10 11 12 13 14 15 16 17 17 17 18 19 20 22 23 24 25 26 26 25 25 26 26 26 25 25 25 25 25 25 25 25 24 23 23 23 23 23
5 6 7 8 9 10 11 12 13 15 16 17 17 18 19 19 20 21 22 23 25 26 27 27 26 26 26 26 26 26 26 26 26 26 26 25 26 25 25 24 24 24 24

GEFSGL_500_meanwind_198.txt.gz
Wind_Speed
24 24 24 24 24 23 23 23 23 23 23 22 22 22 22 23 23 23 24 24 23 23 23 23 23 23 23 23 22 22 22 22 22 21 20 21 22 22 23 23 23 23 24
24 24 23 23 23 23 22 22 22 22 21 21 21 22 21 22 22 22 22 22 22 22 22 22 22 22 22 21 20 20 20 21 21 21 21 21 22 22 22 23 22 22 23
24 24 23 23 21 21 21 21 21 21 21 21 21 21 20 20 21 21 21 21 21 21 21 21 21 21 20 19 18 18 19 20 21 20 20 20 20 21 22 22 22 22 22
24 23 22 21 20 20 20 21 21 21 21 20 19 20 19 20 20 20 21 21 20 20 19 19 18 18 19 18 18 18 18 19 19 19 19 19 18 19 20 20 21 21 21
23 21 20 19 19 19 19 20 20 20 19 18 19 19 19 20 20 20 20 19 19 19 19 18 18 18 18 19 19 18 18 18 18 19 18 18 17 18 18 19 20 20 20
21 19 20 19 19 19 19 20 20 20 19 18 18 19 19 19 19 19 19 19 19 19 18 18 17 18 18 18 18 18 18 18 18 18 17 17 17 17 18 19 19 19 19
20 19 18 18 18 18 18 19 19 18 17 17 18 18 19 19 19 19 18 19 19 19 18 17 17 17 18 17 17 18 18 18 18 18 18 18 17 18 18 18 19 19 19
18 17 17 17 17 17 17 17 17 17 17 18 18 18 18 18 19 18 18 18 18 18 18 18 18 18 18 17 17 18 18 17 18 18 18 18 18 18 18 18 19 19 19
17 17 17 16 16 17 16 15 16 16 16 17 18 17 18 18 18 17 18 17 17 17 17 17 18 18 18 17 17 17 17 17 17 17 17 17 17 17 17 18 18 18 18
17 16 16 15 15 15 15 14 15 16 16 17 16 16 17 17 17 17 17 17 17 17 17 17 17 17 17 17 17 17 17 17 17 16 16 16 17 17 17 18 18 18 18
16 15 14 14 14 14 14 14 14 15 15 15 15 16 16 16 16 16 16 16 16 17 17 17 17 17 17 17 17 16 17 17 17 16 16 16 16 16 17 17 17 17 18
14 14 13 13 13 13 13 13 14 13 13 14 15 15 16 15 16 16 16 16 16 17 17 18 18 18 18 18 17 17 17 17 17 17 17 17 17 16 16 16 16 17 18
12 12 12 12 12 11 11 12 12 13 13 14 15 15 15 16 16 16 16 16 17 18 18 19 18 18 18 18 18 17 17 17 18 18 18 18 17 17 17 17 17 18 19
11 11 11 10 10 9 9 10 11 12 13 13 14 15 15 16 16 16 16 16 17 18 19 19 19 19 19 19 19 18 18 18 18 18 18 18 17 17 17 17 18 18 18
9 9 9 8 8 8 8 9 10 11 12 14 14 15 15 15 15 16 17 17 18 18 19 19 19 19 19 19 19 20 19 19 19 19 19 18 18 18 18 18 18 18 19
8 8 7 7 6 7 8 9 10 11 13 14 14 15 15 15 15 16 16 17 18 19 19 19 20 20 20 19 20 20 21 20 20 20 20 19 19 18 18 19 19 19 19
7 7 7 6 6 7 8 10 10 12 13 14 15 16 16 16 16 17 17 17 18 19 19 20 20 21 20 20 21 21 21 21 21 21 21 20 20 19 19 19 20 19 19
6 6 6 6 7 8 9 10 11 12 13 14 16 17 17 17 17 17 18 18 19 20 20 21 21 21 21 22 23 23 22 22 22 22 21 21 21 20 20 20 21 20 20
6 5 5 5 7 8 9 10 11 12 14 15 17 17 17 17 18 18 19 19 20 20 21 21 22 22 23 23 23 23 23 23 22 21 22 22 22 21 21 20 21 21 21
5 5 5 6 7 8 10 11 12 13 14 15 16 17 17 17 18 19 19 20 20 21 22 23 23 24 24 24 24 24 23 23 22 22 23 23 22 22 21 21 21 21 21
4 5 6 7 9 9 10 11 12 13 15 16 17 17 18 18 19 19 20 20 21 22 22 23 24 24 24 23 23 23 24 24 23 23 23 22 22 21 22 22 22 22 21
4 5 7 8 9 10 11 12 13 14 15 16 17 17 18 18 19 20 21 21 22 23 23 24 25 25 24 24 24 24 24 24 23 23 23 22 21 22 22 22 22 22 22
6 7 7 8 9 10 12 13 14 14 15 17 17 18 19 19 20 21 22 23 24 24 24 25 26 25 25 25 24 24 24 24 24 24 24 23 23 23 23 23 23 23 23
6 7 7 8 9 11 13 13 14 14 16 17 18 18 19 20 21 22 23 24 24 25 25 25 25 25 25 25 25 25 25 25 25 24 25 25 24 24 24 24 24 24 24
6 7 7 8 10 11 12 13 14 15 16 18 18 19 20 20 21 23 24 25 25 26 26 25 26 26 26 27 27 27 27 26 26 25 25 25 25 25 25 24 24 25 24
6 7 8 9 10 11 12 13 14 15 16 17 18 19 20 21 23 25 26 26 26 26 26 26 26 27 28 28 27 28 28 27 27 27 27 27 26 26 25 24 24 24 24

GEFSGL_500_meanwind_204.txt.gz
Wind_Speed
22 22 22 23 23 23 22 21 21 21 20 20 20 20 20 20 21 20 19 19 20 20 21 21 21 21 20 20 19 20 21 21 20 20 21 22 22 22 23 23 24 25 25
21 21 22 22 22 21 21 22 21 20 20 20 20 20 20 21 20 20 18 17 18 18 19 20 20 20 19 19 19 19 20 20 21 20 20 21 22 22 23 23 23 24 24
20 21 21 21 21 20 20 20 21 20 20 20 19 19 20 20 19 18 18 18 18 18 19 19 19 19 18 18 19 19 19 20 20 20 20 20 21 22 22 23 23 23 24
21 21 21 21 20 20 19 20 20 19 19 19 19 19 19 18 18 17 18 18 18 18 19 18 18 18 18 18 18 18 19 19 20 19 19 19 20 21 20 21 21 21 22
21 20 21 20 19 19 19 19 18 18 18 18 19 19 18 18 17 17 17 18 18 18 18 18 18 18 18 19 19 18 18 18 18 18 18 19 20 20 20 21 21 21 21
20 19 18 18 18 18 18 18 17 17 17 17 18 17 16 17 16 16 16 17 17 17 18 18 18 18 18 18 18 17 17 17 18 18 19 19 19 20 20 21 21 21 21
19 18 18 18 18 17 17 17 16 16 16 16 16 15 15 15 15 16 16 16 16 16 16 16 17 17 17 16 16 16 17 18 18 18 19 19 19 20 20 19 19 20 20
18 18 18 18 18 17 17 16 16 16 16 16 15 15 15 16 16 16 16 16 15 15 15 15 16 16 16 16 16 17 18 18 18 18 19 19 19 19 19 18 18 18 19
18 17 17 17 16 16 16 16 15 16 15 15 16 15 15 15 15 16 16 15 15 15 15 15 16 16 17 17 17 17 17 17 17 17 17 17 18 18 18 18 18 18 19
16 16 16 16 15 15 15 15 15 15 14 14 14 14 14 14 14 14 14 14 14 14 15 15 16 16 17 17 17 17 17 17 17 17 17 17 16 17 17 17 17 18 18
16 15 15 14 14 13 13 14 14 14 13 13 13 14 14 14 14 14 14 14 14 14 15 15 15 16 17 17 17 18 18 18 17 18 18 18 18 18 18 18 18 18 18
15 14 13 13 13 12 12 12 12 12 13 12 12 13 13 14 14 14 14 14 15 15 15 16 16 17 17 17 17 18 18 18 18 18 19 19 19 19 18 18 18 18 18
14 13 13 12 12 11 11 11 11 11 11 11 11 12 13 13 14 14 14 15 15 16 16 16 17 17 18 18 18 19 19 19 19 19 19 19 19 19 19 19 19 19 20
13 12 12 11 11 10 10 9 10 10 10 10 10 12 13 13 14 14 15 15 16 16 17 17 18 18 19 19 20 20 20 20 20 19 19 19 19 19 20 20 20 19 19
12 11 11 10 10 8 8 8 8 9 10 10 10 12 13 14 14 14 15 16 16 17 18 19 19 19 19 19 20 21 21 21 21 20 20 20 20 20 20 20 20 20 20
9 9 9 9 8 7 7 7 8 9 10 11 11 12 14 14 15 15 16 17 18 18 18 19 19 19 20 20 20 21 22 21 21 21 20 19 20 20 20 21 21 20 20
8 8 8 8 7 7 7 8 8 10 11 11 12 13 14 15 15 16 17 18 18 18 18 19 19 19 20 20 20 21 22 21 22 22 21 20 20 20 20 20 21 21 21
6 6 7 7 7 7 7 8 9 10 11 12 13 13 14 15 16 17 17 18 19 19 19 19 19 20 20 21 22 22 22 22 22 22 21 20 21 21 21 20 20 20 21
4 5 6 6 7 7 8 8 10 11 12 13 14 14 14 15 16 17 18 19 19 19 19 19 20 20 21 22 23 23 23 23 23 22 22 21 21 21 21 21 21 21 21
3 4 5 6 7 7 9 10 11 12 13 13 13 14 15 16 16 17 19 20 19 20 21 21 21 21 22 23 23 23 24 23 23 22 22 21 21 21 21 21 21 20 20
2 4 6 7 7 8 10 11 11 12 12 13 13 14 15 16 17 18 19 20 20 21 22 22 22 22 22 22 23 23 23 23 23 23 22 21 21 21 21 21 21 21 20
2 4 6 7 7 9 10 11 11 12 12 13 14 15 16 17 18 19 19 20 21 22 22 22 22 22 22 22 23 23 23 23 23 23 22 22 21 21 22 22 21 21 21
3 5 6 7 8 9 11 11 11 12 13 14 14 16 17 18 19 20 20 21 22 23 22 22 23 23 23 23 23 23 23 23 23 23 22 22 21 21 21 21 21 20 20
4 6 7 7 9 9 10 11 12 13 13 14 15 16 17 18 19 20 21 22 23 23 23 23 24 24 24 24 24 23 23 23 23 23 22 22 21 21 22 21 21 21 20
5 6 7 8 9 9 10 11 12 13 13 14 15 16 18 19 20 21 21 22 23 24 24 24 24 25 25 25 24 24 23 23 23 23 22 22 21 21 21 21 21 21 20
5 7 7 8 9 9 10 11 12 13 13 14 15 17 18 20 20 21 22 23 24 24 24 25 25 26 26 25 24 24 24 23 23 22 22 22 21 22 22 22 22 22 21

GEFSGL_500_meanwind_210.txt.gz
Wind_Speed
22 21 22 23 23 23 23 23 22 21 21 22 22 22 22 22 22 22 22 23 23 22 22 22 21 21 22 22 22 22 22 22 22 23 23 24 24 25 25 25 25 26 27
21 21 22 22 22 23 23 23 22 22 22 22 21 21 21 21 21 22 22 22 21 21 21 21 21 21 21 22 22 22 22 22 22 22 22 22 23 23 23 23 24 25 26
22 22 22 23 22 22 22 22 22 22 22 22 21 20 20 19 20 20 20 20 20 20 20 20 20 20 21 22 22 22 22 21 22 22 22 22 22 22 23 23 23 24 25
22 22 22 22 22 22 22 22 21 21 21 21 20 19 19 19 19 20 20 20 20 20 20 19 19 19 20 20 21 21 21 21 21 21 21 21 21 21 22 22 22 23 23
22 22 22 22 21 21 21 21 21 21 20 20 19 19 18 19 19 20 20 20 20 19 18 18 18 19 20 20 20 19 20 19 20 20 20 20 20 21 21 21 21 22 23
22 21 21 21 21 21 21 21 21 20 19 19 18 18 18 19 20 20 20 20 19 19 18 18 18 18 19 19 19 20 20 19 19 19 20 20 20 21 21 21 21 21 21
21 21 21 21 21 21 20 20 20 20 19 19 18 18 19 19 19 19 19 19 19 18 18 18 18 18 19 19 19 19 19 19 19 20 20 21 21 21 21 21 21 21 21
21 20 20 20 20 20 20 20 20 19 19 20 19 19 18 18 19 18 18 18 19 18 18 18 18 19 19 19 19 19 19 19 20 20 21 21 20 21 21 21 22 22 22
20 20 19 20 20 20 21 20 20 19 19 19 18 18 17 17 17 18 18 19 19 19 19 19 19 19 19 19 19 19 19 19 20 21 22 21 21 21 21 21 21 21 21
19 19 19 19 20 20 20 20 19 19 19 18 17 17 17 17 17 18 19 20 20 20 20 20 20 20 20 20 19 19 20 20 21 21 22 21 21 21 21 22 21 21 21
18 18 18 19 19 20 20 19 19 18 17 17 16 16 16 17 17 18 19 19 20 20 20 21 21 20 20 19 20 20 21 21 21 22 22 22 21 21 21 22 21 21 21
16 17 18 19 19 19 18 18 18 17 15 15 15 15 15 17 17 17 18 19 19 20 20 20 20 20 20 19 20 21 21 21 21 22 22 22 21 21 21 21 21 21 20
16 17 17 17 18 17 17 16 16 15 14 13 13 14 15 16 16 18 19 19 20 20 20 20 20 20 20 20 20 21 22 21 22 22 22 21 21 21 21 21 21 21 20
17 17 15 16 16 16 16 15 14 13 13 13 13 14 15 16 17 18 19 19 20 20 19 20 20 19 19 19 20 21 21 21 21 21 20 21 20 20 20 20 20 20 20
15 14 14 14 14 14 13 13 12 12 13 13 13 15 17 18 18 18 18 19 19 20 19 20 20 20 20 20 21 20 20 21 21 21 21 21 21 21 21 21 20 20 20
14 13 13 13 13 12 12 12 12 13 13 14 14 16 17 17 18 18 19 20 20 21 20 21 20 20 20 20 21 21 20 21 21 21 21 21 21 20 21 21 21 20 20
13 13 12 12 11 11 12 13 13 13 13 14 15 16 17 18 18 18 19 20 20 21 21 21 21 20 21 22 22 22 21 22 21 21 21 20 20 21 21 21 21 22 22
12 11 10 10 11 12 13 13 13 13 13 14 15 16 18 18 19 19 19 20 20 21 21 21 21 21 22 23 23 22 22 22 22 21 21 21 21 21 21 21 21 22 22
10 9 8 9 10 11 12 13 12 13 13 14 16 17 18 19 19 19 20 21 21 21 21 21 21 22 22 22 22 22 22 22 22 21 21 21 21 20 21 21 21 21 22
8 7 7 8 9 10 12 12 12 13 13 15 16 17 18 19 19 20 21 21 22 22 22 22 22 22 22 22 22 22 22 21 22 21 21 21 20 20 20 20 20 21 21
6 6 7 7 8 10 11 11 12 13 14 15 16 17 18 19 20 20 21 22 22 22 22 22 22 22 23 23 22 22 22 21 21 21 21 19 19 19 19 19 19 20 20
6 6 6 7 9 10 10 11 12 13 14 15 16 17 18 19 19 20 21 22 22 22 23 23 23 23 23 23 23 23 22 22 21 21 20 19 18 19 19 19 20 20 19
5 5 6 7 8 9 10 10 11 12 14 15 15 17 18 19 20 21 22 22 23 23 23 23 23 23 23 23 23 23 22 21 21 20 20 19 19 19 19 19 19 19 19
5 5 6 7 8 10 10 11 11 12 13 14 15 17 18 19 19 21 22 22 23 23 23 23 24 23 23 23 23 23 23 22 22 21 21 20 20 19 20 20 20 20 20
5 5 6 7 8 10 11 11 11 12 13 14 15 16 18 18 19 21 22 22 22 23 23 24 24 24 24 24 24 24 23 23 23 22 21 21 21 21 21 21 21 21 21
6 6 7 8 9 10 11 11 11 11 12 13 14 16 18 19 20 21 22 22 22 23 24 24 24 25 24 25 25 25 24 24 24 23 22 22 22 23 22 22 22 22 22

GEFSGL_500_meanwind_216.txt.gz
Wind_Speed
21 22 22 22 22 23 24 24 24 22 22 22 22 23 23 22 22 21 21 21 21 21 21 21 22 21 22 22 22 22 23 23 23 23 24 25 25 24 24 25 26 27 27
21 22 22 21 21 22 23 23 22 21 21 22 22 22 22 21 21 20 20 21 21 21 21 21 21 22 22 22 21 22 22 22 22 23 23 24 24 24 24 25 25 25 25
21 21 21 21 21 20 21 21 21 21 21 21 22 22 21 21 20 19 20 20 21 20 20 21 22 22 22 22 21 21 21 21 21 22 22 22 23 22 23 23 24 24 24
21 21 21 21 20 20 20 20 20 20 20 20 21 21 22 20 20 20 20 21 21 20 20 21 21 22 22 21 20 20 20 20 21 21 21 22 22 22 22 23 23 23 24
21 20 20 20 20 19 19 20 19 19 20 20 21 21 21 21 20 21 21 21 20 20 21 21 21 21 22 21 20 19 20 20 21 21 21 22 22 22 23 23 22 23 23
21 20 20 19 19 18 18 19 19 20 21 21 21 21 22 21 21 22 22 21 21 21 20 21 21 21 21 20 20 20 21 21 22 22 22 22 22 22 23 22 22 22 22
20 19 19 19 18 18 19 19 19 20 20 21 21 22 22 21 21 21 21 21 21 20 20 20 20 20 20 20 20 21 21 21 21 21 21 22 22 22 22 22 22 21 21
19 19 19 19 19 19 19 19 19 20 20 21 21 21 21 21 21 21 20 20 20 20 20 20 20 20 21 20 20 20 20 20 21 21 21 21 21 21 22 22 22 22 22
20 19 18 18 18 18 18 19 19 19 19 19 18 18 19 19 20 20 19 19 19 19 19 20 20 20 20 20 20 19 19 20 21 20 20 20 21 21 21 22 22 23 22
20 19 18 18 18 18 17 17 18 18 17 17 16 17 18 18 18 18 18 18 18 19 19 19 19 19 19 19 19 19 20 20 20 20 20 21 21 21 21 21 22 22 22
19 18 17 17 17 17 16 16 16 16 16 16 16 17 17 17 18 17 18 18 18 19 19 19 18 18 17 17 18 18 19 19 19 19 19 20 21 21 20 20 21 21 22
18 17 17 17 17 16 15 15 15 15 15 16 16 16 16 18 17 17 17 18 18 19 18 18 17 17 17 17 17 17 18 18 18 18 19 19 20 20 20 21 21 22 22
16 16 16 16 15 15 15 14 14 15 15 15 16 16 16 17 17 17 17 18 18 18 18 17 17 17 17 17 17 17 17 17 17 18 19 19 19 19 19 20 20 21 21
16 15 14 14 14 14 14 14 15 15 15 15 16 16 16 16 16 17 17 17 17 17 16 16 16 16 16 17 17 17 17 17 17 17 18 18 19 19 19 20 20 21 21
14 14 13 13 14 14 14 15 15 15 16 17 16 16 16 16 17 17 16 16 17 16 16 16 17 16 16 17 17 16 17 17 17 17 17 18 19 19 19 19 19 19 20
14 14 13 13 13 13 14 14 14 15 15 16 16 16 16 16 17 17 16 16 16 15 16 16 16 16 16 16 17 16 17 17 17 17 18 18 18 18 18 18 19 18 18
13 13 13 13 12 13 13 14 13 14 15 15 15 15 15 16 16 17 16 16 16 16 16 16 16 16 16 16 17 17 17 18 17 18 18 18 18 18 17 17 17 17 17
13 13 12 12 12 12 12 11 11 12 13 14 14 14 15 15 16 16 16 16 16 16 16 16 16 16 16 17 17 17 17 17 17 18 18 18 18 17 17 16 17 17 17
12 12 11 11 11 11 10 10 10 10 11 12 13 14 14 15 15 15 16 16 16 16 16 16 16 16 17 17 17 18 17 18 18 19 18 18 17 17 17 17 17 16 16
11 10 10 10 10 10 9 8 8 10 11 12 13 14 14 14 15 15 16 16 16 16 16 17 17 17 17 17 18 18 18 18 19 19 18 18 18 17 17 17 16 16 17
9 9 9 9 9 8 7 7 8 9 10 11 12 13 14 14 14 15 15 16 16 17 17 18 18 18 18 18 18 19 19 19 19 19 19 18 18 18 17 17 16 16 16
9 9 8 8 7 6 6 7 8 9 10 11 12 13 14 14 15 15 15 16 17 17 17 18 19 19 19 19 19 20 20 20 20 19 19 19 19 18 18 17 17 17 16
7 7 7 6 6 6 6 6 7 9 10 11 12 13 15 15 15 15 16 17 18 18 18 19 19 19 20 21 21 21 21 21 20 20 20 20 19 19 19 18 18 17 17
7 7 7 6 6 6 6 7 8 9 10 11 11 13 14 15 15 15 16 16 17 18 19 19 19 20 21 22 22 23 23 22 22 22 21 20 20 19 19 19 18 18 17
7 7 7 7 6 7 7 7 8 9 10 11 12 13 14 14 15 15 16 17 17 18 18 19 19 20 22 23 23 22 23 23 23 23 22 21 20 19 19 19 19 18 18
7 7 6 6 7 7 7 8 9 10 10 10 11 13 13 14 15 15 16 17 18 18 18 19 20 21 23 23 22 22 22 23 23 23 23 22 21 20 20 19 19 19 19

GEFSGL_500_meanwind_222.txt.gz
Wind_Speed
26 25 24 24 23 22 23 23 22 23 23 23 23 23 22 22 22 23 23 24 24 24 24 24 23 22 23 24 24 24 25 25 25 24 25 25 25 26 27 27 26 26 27
25 24 23 22 22 22 23 22 23 23 23 23 23 23 22 22 23 24 24 25 25 24 24 22 22 22 23 23 23 24 25 25 25 25 25 26 26 27 27 28 28 27 26
24 23 22 21 22 22 23 22 22 22 22 22 23 23 23 23 24 24 24 25 24 23 22 22 21 22 22 22 23 23 24 24 25 26 26 26 26 27 28 27 27 27 26
22 22 21 21 22 23 22 22 22 22 23 23 23 23 23 24 24 24 24 24 23 22 22 22 22 21 21 22 22 22 23 23 24 25 26 26 26 26 26 26 26 26 26
22 21 21 22 22 22 22 22 22 22 22 22 23 23 23 24 24 24 24 23 22 23 23 22 21 21 22 22 22 22 22 22 22 23 24 25 25 25 25 24 25 25 25
22 22 22 22 21 21 21 21 22 22 22 23 23 24 23 23 23 23 23 22 22 23 23 22 21 21 22 22 21 21 20 21 21 22 22 23 23 23 24 24 24 24 23
22 22 22 21 21 22 22 22 22 22 22 23 23 23 22 21 22 22 22 22 22 22 23 22 22 21 20 20 20 20 20 21 21 21 21 21 22 22 22 23 23 22 22
21 21 21 21 22 22 22 22 22 22 22 22 22 21 21 21 21 21 21 21 22 22 22 21 20 19 19 19 19 19 19 20 21 21 20 21 21 21 22 22 22 22 21
21 21 21 22 22 22 22 22 22 21 21 21 21 20 20 20 21 21 21 22 22 21 21 21 20 19 19 19 18 18 18 19 19 19 19 20 21 21 22 22 21 21 21
21 21 21 21 22 21 21 20 20 20 20 21 20 20 20 20 20 21 21 21 21 20 20 19 19 18 17 17 17 17 17 18 18 18 18 19 19 20 21 21 21 21 22
20 20 20 20 20 20 20 19 19 19 19 20 19 19 19 20 21 21 20 19 19 18 18 17 17 17 17 17 17 17 17 17 18 18 18 19 19 20 21 21 21 22 22
19 19 19 19 18 18 19 19 18 18 18 19 19 19 20 20 19 19 18 17 16 16 16 16 17 17 17 17 17 16 16 16 17 17 18 18 19 20 20 21 22 22 21
19 19 18 19 18 18 18 18 17 17 18 19 19 18 18 18 17 17 16 15 14 15 16 16 16 16 16 16 16 16 16 17 17 17 17 18 19 19 19 20 20 20 20
18 18 18 18 17 17 17 16 17 17 17 18 18 18 18 17 16 16 15 15 14 14 15 15 16 15 14 15 15 16 16 17 18 18 18 18 18 18 18 19 19 19 19
18 17 17 18 17 16 16 16 16 16 16 17 17 18 18 18 17 16 16 16 15 15 14 14 14 14 14 14 15 16 16 17 17 17 18 18 17 17 17 18 18 19 19
17 17 17 17 15 15 15 15 15 15 15 16 17 18 18 18 18 17 17 16 15 15 14 14 15 15 15 15 16 16 16 17 17 18 17 17 16 16 17 17 18 19 19
17 16 15 15 14 14 14 14 14 14 14 15 16 17 18 19 18 18 16 16 15 15 15 15 15 16 16 16 16 17 17 17 17 17 18 17 16 16 17 17 18 18 19
15 14 14 13 13 13 12 12 12 13 13 15 17 18 19 19 19 18 17 16 15 15 16 16 16 16 17 17 17 17 17 17 17 17 18 17 17 18 18 18 18 18 18
14 13 13 12 12 12 12 11 11 12 13 15 17 18 19 19 18 18 17 17 16 16 16 17 17 17 18 18 18 18 17 17 17 18 18 17 18 18 19 19 18 18 18
13 12 12 11 11 11 11 10 11 12 14 15 17 17 18 18 18 17 17 17 17 17 17 17 18 18 19 19 19 19 18 18 18 19 19 19 20 19 19 19 18 18 18
13 12 11 11 11 10 11 11 12 13 14 15 16 17 17 17 17 17 17 17 17 17 18 18 18 19 19 20 21 21 20 19 19 20 20 20 20 19 18 18 18 17 17
12 12 11 11 10 10 10 11 12 12 14 15 15 16 16 17 17 17 17 17 17 17 18 18 18 19 20 21 22 21 21 20 20 20 20 20 19 18 18 18 17 17 17
11 11 11 10 10 10 10 11 12 13 14 14 14 14 15 16 16 17 17 17 17 18 18 19 19 20 20 21 22 22 21 21 21 21 21 20 19 19 19 19 18 18 17
11 10 10 10 10 11 11 11 12 13 13 13 13 14 15 16 17 17 17 18 19 19 18 19 20 20 21 22 23 22 22 22 22 22 21 20 20 19 20 19 19 18 18
11 11 10 11 11 11 11 11 12 13 13 14 14 14 16 16 16 17 17 18 19 19 19 19 20 21 22 23 24 24 23 23 23 22 21 20 20 20 20 19 19 18 18
10 11 11 11 12 12 12 12 13 13 13 13 14 15 15 16 16 17 17 18 18 19 19 20 21 22 23 23 24 24 24 24 23 22 21 20 20 20 19 19 19 18 18

GEFSGL_500_meanwind_228.txt.gz
Wind_Speed
21 21 21 20 20 21 22 22 21 21 21 20 20 21 21 21 21 22 22 23 24 24 23 23 23 22 22 22 22 22 24 24 24 25 26 27 28 28 29 28 26 27 28
21 20 20 20 21 21 21 20 20 20 21 20 21 21 21 21 22 22 23 23 23 23 23 23 22 21 21 22 22 22 23 24 24 25 26 26 27 28 29 29 28 28 28
20 19 19 20 20 20 20 20 20 20 21 21 21 21 21 22 22 22 22 23 23 23 22 22 21 21 21 21 22 22 23 23 24 24 25 26 27 28 27 27 28 29 29
19 19 19 19 19 20 20 20 21 21 21 22 21 22 22 21 22 22 22 22 22 22 22 21 20 20 20 20 21 21 22 23 23 23 24 25 25 26 26 26 27 27 28
19 19 19 19 19 20 21 21 21 21 21 22 22 22 22 22 23 22 22 21 22 21 21 20 20 20 19 19 20 20 21 21 21 22 22 22 22 24 25 25 25 26 26
19 19 19 19 20 20 21 22 22 22 22 22 23 23 23 23 23 22 22 21 21 21 20 20 20 20 20 20 19 20 20 20 20 21 21 21 21 22 24 24 24 24 24
19 19 19 20 20 21 22 22 22 21 21 22 23 23 23 22 22 21 21 20 20 20 20 19 19 19 19 19 18 19 19 19 19 20 21 21 21 22 23 24 24 24 23
20 20 20 20 21 21 21 21 20 20 21 21 21 22 21 21 21 21 20 20 19 19 19 18 18 18 18 17 17 17 17 17 18 19 20 20 21 22 22 23 23 23 23
20 20 20 20 20 20 20 20 20 20 21 21 21 20 20 20 20 19 18 18 18 17 17 17 17 17 17 16 16 15 16 16 17 18 19 20 20 21 21 21 22 21 21
19 19 19 20 20 20 20 20 20 20 20 19 20 20 19 19 18 17 17 17 16 15 16 16 16 15 15 15 14 14 14 15 15 16 17 17 17 18 18 18 19 19 19
18 19 19 19 20 20 19 19 19 18 18 19 19 19 19 18 18 17 17 16 16 15 15 15 14 14 14 13 14 14 14 14 15 15 15 14 14 14 15 16 17 17 18
18 18 18 19 19 19 19 19 18 17 18 18 19 19 18 18 18 17 17 16 15 15 14 14 13 13 12 12 13 13 14 14 14 14 13 13 13 13 13 15 16 17 18
18 18 18 18 18 18 18 17 17 17 17 18 18 18 18 17 18 18 17 16 16 15 15 14 13 12 12 13 13 13 14 14 13 13 13 13 13 13 14 14 15 16 17
17 17 17 18 17 17 16 16 16 17 17 18 17 17 17 18 17 17 16 16 16 16 15 14 14 13 13 14 14 14 14 14 14 14 13 14 14 14 14 15 15 16 17
16 16 16 16 16 15 15 15 16 17 17 17 17 16 17 17 17 17 17 16 16 16 15 15 14 14 14 14 14 15 15 15 14 14 14 15 15 15 15 15 16 16 16
16 15 15 16 15 14 13 14 15 15 16 16 16 16 17 17 17 17 17 17 17 17 16 16 16 16 15 15 15 15 15 14 14 14 14 15 15 16 16 16 17 17 18
15 14 14 14 14 13 13 13 14 14 14 15 16 16 17 17 17 18 18 18 18 18 17 17 17 17 16 16 16 16 16 15 14 14 14 15 16 16 17 17 18 18 17
14 13 13 13 13 12 12 13 14 14 14 15 15 16 16 16 17 18 19 19 19 18 18 18 17 17 17 17 17 17 16 15 15 15 15 15 16 16 17 17 16 16 17
13 13 13 12 11 11 13 13 13 13 14 14 15 16 16 17 17 18 19 20 19 19 19 19 19 18 18 18 18 18 17 16 16 16 16 16 16 15 16 16 16 16 16
13 13 12 11 11 12 13 13 12 13 14 14 14 15 16 17 18 19 20 20 20 19 19 19 19 19 19 19 20 20 19 18 17 17 17 17 16 15 16 16 16 16 16
13 12 11 11 12 12 13 12 12 13 13 14 14 15 16 17 19 20 20 20 20 19 19 19 19 19 20 20 21 21 20 19 18 18 18 18 17 17 16 16 16 16 16
13 12 12 12 12 12 12 12 12 13 13 14 14 15 16 17 18 20 21 21 20 20 19 20 20 20 20 20 21 21 21 20 19 18 19 19 18 17 17 17 17 16 16
12 12 12 12 12 12 12 12 12 13 13 14 15 16 17 18 19 20 20 21 20 20 20 20 21 20 20 20 21 21 21 20 19 18 19 19 18 18 17 17 16 16 15
12 12 12 12 12 12 12 12 12 13 14 14 14 16 17 18 19 20 20 20 20 20 21 21 21 21 20 20 21 21 21 20 20 18 18 18 17 17 17 16 16 15 15
12 12 12 12 12 12 12 12 13 14 14 14 15 16 17 17 19 19 20 20 21 21 21 21 21 21 21 21 21 21 22 21 19 19 18 18 17 17 17 17 16 16 15
12 12 12 11 11 12 13 13 13 14 14 14 15 16 17 18 18 19 19 20 20 21 21 21 21 21 21 21 21 21 22 21 19 18 18 18 18 18 17 17 16 16 15

GEFSGL_500_meanwind_234.txt.gz
Wind_Speed
20 20 21 21 21 21 21 21 21 22 22 22 21 21 22 24 24 25 25 25 25 25 26 25 24 23 23 23 24 24 25 25 25 25 25 26 27 28 29 31 31 32 32
20 20 20 20 21 21 20 21 21 21 21 21 22 22 23 24 24 24 24 25 25 25 24 24 23 22 22 22 22 23 23 23 23 23 24 25 26 27 28 29 30 31 32
20 21 20 20 20 20 20 20 21 20 20 21 22 22 23 24 23 23 23 23 23 24 24 23 21 21 21 21 21 22 22 23 23 23 23 24 25 25 26 27 29 30 32
20 20 19 19 19 19 20 21 20 20 21 22 22 22 22 23 22 22 22 23 23 23 23 22 21 21 21 21 21 22 22 22 22 22 22 22 23 24 25 26 27 29 30
19 18 19 19 18 19 20 20 20 20 21 21 22 22 22 22 23 23 23 23 23 22 22 22 21 21 21 20 20 20 20 21 21 21 21 22 23 24 25 26 26 26 28
19 19 19 18 18 19 19 19 20 21 22 22 23 23 23 23 23 23 22 22 21 21 21 21 21 20 19 19 19 19 19 19 19 20 21 21 22 23 24 24 23 24 25
19 19 19 19 19 20 20 20 21 21 22 22 22 22 22 22 22 22 21 21 21 21 21 20 19 18 18 17 18 18 18 18 18 19 20 20 20 20 20 20 21 21 22
20 19 19 20 20 20 20 21 21 21 21 21 21 21 21 22 22 21 21 21 20 20 20 19 18 17 17 17 17 17 18 18 18 17 17 18 17 17 17 17 18 19 20
20 19 19 19 20 20 20 20 20 20 20 19 19 20 20 21 20 20 20 21 20 20 19 19 18 16 17 17 16 16 16 17 16 16 15 15 15 16 16 17 18 19 19
20 19 19 19 19 18 18 19 19 19 19 19 19 19 19 19 19 19 19 20 20 20 19 18 18 17 17 17 16 15 15 15 15 15 15 15 15 16 17 17 18 18 18
19 19 19 18 18 18 18 17 18 19 18 18 18 18 18 18 19 19 19 20 20 20 19 18 18 17 17 16 17 16 16 15 15 15 15 14 14 15 16 17 18 18 18
19 18 18 18 17 17 17 17 18 18 17 17 17 18 17 18 19 19 20 20 20 20 19 18 18 17 17 16 17 17 16 16 15 15 15 14 14 15 15 16 16 17 17
17 17 17 17 16 16 17 17 18 17 17 17 17 17 17 18 19 20 20 21 21 20 19 18 17 17 16 16 16 16 16 15 15 15 15 15 15 14 14 15 15 15 15
16 17 17 17 16 16 17 17 17 16 16 16 16 17 18 18 19 19 20 21 21 21 20 19 18 17 17 17 17 16 16 16 15 16 16 16 15 14 14 15 16 16 15
15 16 16 17 17 16 16 17 16 15 15 15 16 17 18 19 19 19 20 21 22 22 21 20 20 19 18 17 17 17 17 16 16 16 16 16 15 15 15 15 15 15 16
15 16 16 16 16 16 17 16 15 14 14 14 15 17 18 19 19 19 20 21 22 22 21 21 20 19 18 17 17 17 17 17 17 16 16 16 16 16 16 16 15 15 15
15 15 16 16 16 16 16 16 15 15 15 15 16 17 17 18 19 20 21 22 22 22 22 21 20 20 19 18 18 18 18 18 18 17 17 17 17 16 16 15 15 15 16
15 15 16 16 16 16 16 16 16 15 15 15 16 16 16 17 19 20 21 22 22 22 21 21 21 21 20 20 19 18 19 19 19 19 18 18 17 16 16 15 15 16 15
16 15 16 17 16 16 16 16 15 15 15 15 15 15 17 18 19 20 22 22 22 21 21 21 22 22 21 20 20 20 20 20 20 20 19 18 17 17 17 16 16 16 15
16 16 16 16 16 16 15 15 15 15 14 15 15 16 17 19 20 21 22 22 22 22 21 22 22 23 22 21 20 21 21 21 21 20 20 19 18 18 17 17 16 16 15
16 16 16 16 15 15 15 15 15 14 14 15 16 16 18 19 20 21 21 22 22 22 22 22 23 23 22 22 21 21 21 21 21 20 20 19 18 18 17 17 16 15 15
16 16 16 16 15 14 14 14 14 14 15 15 16 17 17 18 20 20 21 22 22 22 22 22 23 23 22 22 22 22 22 22 21 20 20 19 18 18 17 17 16 15 14
16 16 15 15 14 14 13 13 14 15 15 15 15 17 17 18 19 20 21 22 22 22 23 24 24 23 23 23 23 23 22 21 21 21 21 20 19 18 16 16 16 15 15
16 16 15 14 14 14 13 13 14 15 15 15 15 16 18 19 20 21 22 22 22 23 23 24 24 24 23 23 23 23 22 22 21 21 21 20 19 18 17 16 16 16 15
15 14 14 14 14 14 14 14 14 15 15 16 16 16 18 19 20 21 21 22 22 22 23 24 24 24 24 23 23 23 22 22 22 21 20 20 19 19 18 17 17 16 15
17 16 16 15 14 14 14 14 14 15 16 16 17 17 18 19 19 20 21 22 22 22 23 24 24 24 24 23 23 23 23 22 21 21 20 19 19 19 18 17 16 16 15

GEFSGL_500_meanwind_240.txt.gz
Wind_Speed
19 20 20 19 19 20 19 19 19 19 19 20 20 20 20 21 22 22 22 22 22 22 22 21 21 22 22 23 23 24 24 25 25 24 25 26 28 29 30 31 33 35 37
19 19 19 19 19 19 19 19 19 20 20 20 20 20 21 21 22 22 22 21 21 21 21 20 21 21 21 21 22 22 22 22 23 23 24 24 25 26 27 29 31 32 34
18 19 19 18 19 19 19 19 19 19 20 20 20 20 21 21 21 22 22 21 20 19 19 20 20 20 20 20 21 21 21 22 23 23 23 23 24 24 25 26 27 28 30
18 18 19 18 19 19 19 19 19 19 19 19 20 20 21 21 22 22 22 21 20 19 19 20 21 21 20 20 20 20 19 20 21 22 22 22 23 23 23 24 24 25 27
18 18 18 18 19 19 19 18 19 19 19 19 20 20 21 21 21 21 21 21 21 20 21 21 21 21 21 21 20 20 19 19 20 21 21 22 22 23 23 23 23 24 26
18 18 18 17 18 18 18 18 18 19 19 19 19 18 19 20 20 20 21 21 20 20 20 20 20 21 21 19 19 19 19 19 19 20 20 20 21 21 21 21 21 22 24
18 18 17 17 17 18 18 18 18 18 17 17 17 17 18 18 19 19 19 19 19 19 19 20 21 20 19 18 18 18 18 18 18 18 19 19 19 19 20 20 20 21 22
17 17 17 17 18 18 17 17 17 17 17 16 16 16 17 18 18 19 19 18 18 18 19 19 20 20 19 18 18 18 18 18 18 18 19 18 18 18 19 19 19 20 21
17 17 17 18 18 18 18 18 17 17 16 16 16 16 17 17 18 19 18 18 18 18 18 18 19 20 19 18 18 18 17 18 18 19 18 18 18 18 18 19 19 19 19
17 17 17 17 17 17 17 17 16 15 14 14 15 15 17 17 18 19 18 17 18 18 18 19 19 19 18 17 17 17 16 16 16 17 17 17 17 17 18 18 18 18 19
17 17 17 17 17 16 16 15 15 15 14 14 15 15 17 17 18 18 17 17 17 17 18 18 19 18 17 17 17 17 16 15 14 15 16 17 17 17 17 17 17 17 18
17 17 16 16 15 15 15 15 15 15 15 15 15 16 17 17 18 17 17 17 18 18 18 18 19 19 18 16 16 15 16 15 14 14 15 16 16 15 15 15 16 17 18
17 16 15 15 14 15 15 15 15 15 15 15 15 16 17 17 18 17 18 18 18 18 18 19 18 18 19 17 15 15 16 16 15 15 16 16 16 15 15 14 15 16 17
16 15 14 14 14 15 15 16 16 16 16 15 16 17 17 17 17 18 18 18 18 18 18 19 19 19 18 17 16 16 16 16 16 16 16 16 15 14 14 14 15 16 16
15 15 14 14 15 15 16 17 16 16 16 16 16 16 17 17 17 18 18 18 18 19 19 19 19 18 17 16 16 17 17 16 16 17 16 15 15 15 14 15 16 16 17
15 14 14 14 15 16 16 17 16 16 15 15 15 16 16 17 18 18 18 18 19 19 19 19 18 18 17 16 16 17 17 17 17 17 16 16 16 16 15 16 16 16 16
15 15 15 15 15 16 17 16 16 16 16 16 16 16 16 16 17 18 18 18 18 18 18 18 18 17 17 17 17 17 17 17 17 17 16 16 16 16 15 15 15 15 15
16 16 16 16 16 16 17 17 16 16 16 15 16 16 17 17 18 18 18 18 18 18 18 18 18 18 18 17 17 17 17 18 17 16 16 16 16 16 15 15 14 14 15
16 16 16 16 16 16 17 16 16 16 15 16 16 17 17 17 17 17 18 18 18 18 18 18 18 18 18 18 18 18 18 18 17 17 17 16 16 16 15 15 15 14 14
17 17 17 18 18 17 17 16 16 15 15 16 16 16 17 16 16 17 18 18 18 18 19 19 19 19 18 18 18 18 18 18 18 18 18 17 16 17 16 16 16 15 15
17 18 18 18 17 17 16 16 16 15 15 16 16 17 17 17 17 18 18 18 18 18 19 19 19 19 19 19 19 19 19 19 19 19 18 17 16 17 16 16 16 16 16
17 17 17 17 17 17 16 16 15 15 16 16 16 17 17 17 17 18 18 19 19 19 19 19 19 19 19 20 19 19 19 20 19 19 18 18 17 17 16 16 16 16 16
17 17 18 18 17 17 16 15 15 15 15 16 16 16 17 17 17 17 18 19 19 19 20 20 19 19 19 20 20 20 20 20 20 19 18 17 17 17 17 17 17 16 16
17 17 17 17 17 17 16 15 15 15 15 15 15 16 16 16 17 17 18 19 19 19 20 20 20 19 19 20 20 21 21 21 20 19 19 18 17 17 17 17 16 16 16
17 17 17 17 17 16 15 15 15 15 15 15 15 15 15 16 17 17 17 19 20 20 21 20 20 20 20 20 21 21 21 21 20 19 19 19 18 17 17 17 17 17 17
17 17 17 17 16 16 16 16 15 15 15 15 15 15 15 16 17 17 18 19 20 21 21 20 20 20 21 21 21 21 21 21 20 20 20 19 18 17 16 17 17 17 17

GEFSGL_500_meanwind_246.txt.gz
Wind_Speed
20 19 19 20 20 19 19 19 19 19 19 19 19 19 20 20 20 21 21 22 22 23 23 23 24 25 25 25 25 24 24 25 24 23 24 25 26 25 25 26 27 27 27
20 19 20 20 20 20 20 19 19 19 19 19 19 19 19 19 20 20 21 21 22 22 23 23 23 23 23 24 24 23 23 24 23 23 23 24 24 25 25 25 26 27 27
20 20 20 20 20 20 20 19 19 19 20 20 20 19 19 20 20 20 20 21 22 23 23 23 23 23 23 24 23 23 23 22 22 22 23 22 23 23 23 24 24 25 27
21 20 20 20 20 21 20 19 19 20 20 20 19 19 19 20 20 21 21 22 23 23 23 23 24 24 23 23 22 21 21 21 21 21 21 21 22 22 23 23 24 25 26
21 20 20 20 20 20 20 19 19 20 20 20 19 19 19 20 20 21 22 22 23 23 23 23 23 23 22 22 21 20 20 20 20 20 20 21 21 22 23 23 24 24 24
20 20 20 20 20 20 19 19 19 19 19 19 19 19 20 20 21 22 22 22 22 23 23 23 22 22 21 21 20 20 19 18 19 19 20 20 20 21 22 23 23 24 23
21 20 20 20 19 19 19 18 18 19 19 19 20 20 20 20 21 21 21 21 21 21 21 21 21 21 21 20 19 19 18 18 18 19 19 19 20 20 21 22 22 22 23
21 20 20 19 19 19 19 18 18 18 19 20 20 20 20 20 20 20 19 19 19 20 20 20 20 21 20 19 18 18 18 17 18 18 19 19 19 19 20 20 20 21 21
20 20 20 20 19 18 18 18 18 19 20 20 20 20 20 19 18 18 18 19 19 20 21 20 20 20 20 19 18 18 17 17 17 17 17 17 17 17 18 18 18 19 19
20 19 19 19 18 18 18 18 19 19 20 20 20 20 19 18 18 18 18 19 20 21 21 21 21 21 20 19 18 18 17 17 17 17 17 17 17 16 17 17 17 18 18
20 19 19 19 18 18 18 19 19 19 20 20 19 18 18 18 19 19 19 20 21 21 22 21 21 21 20 20 19 18 18 18 17 16 16 17 16 16 17 18 18 18 18
20 19 19 18 18 18 19 19 20 20 20 20 19 19 18 18 18 19 19 20 21 22 22 22 22 21 21 20 19 18 18 17 17 17 17 17 17 17 17 18 19 18 18
20 19 19 19 19 19 19 20 20 20 19 20 20 19 19 19 19 20 20 21 21 22 22 22 22 21 20 19 18 17 17 17 17 17 17 17 17 17 17 17 17 17 17
19 19 19 18 19 19 19 20 19 19 19 19 19 19 20 20 20 20 20 20 21 20 20 21 21 20 19 18 18 17 17 17 17 17 18 17 17 17 16 16 16 16 16
19 19 18 19 19 20 20 20 19 19 19 19 20 20 20 20 20 20 20 20 20 20 20 20 20 21 20 19 18 17 17 17 18 18 18 18 18 18 17 17 17 17 17
20 20 20 20 20 20 20 20 19 18 18 18 19 20 20 21 20 20 20 20 20 20 20 20 20 20 20 19 18 18 18 18 18 18 18 19 19 18 17 18 18 17 17
21 21 21 21 20 20 20 19 18 17 17 18 18 19 20 21 20 20 20 20 19 19 20 20 20 20 19 19 19 19 19 19 18 18 18 19 18 17 17 17 17 18 18
21 21 21 21 21 20 20 19 18 17 17 18 18 19 20 20 20 20 20 20 19 20 20 20 19 19 19 19 19 19 19 19 19 19 19 19 18 17 17 17 17 18 18
21 21 21 21 21 21 20 19 17 17 18 18 18 19 19 20 20 20 20 20 20 20 19 19 19 19 19 20 19 19 19 19 19 19 19 19 18 18 18 17 17 17 18
21 21 22 21 21 20 20 19 18 17 17 18 19 18 19 19 19 19 19 19 19 19 19 19 19 19 19 20 20 20 20 19 19 19 19 18 18 18 18 18 18 19 19
21 21 21 21 21 20 20 19 18 17 17 18 18 18 18 18 18 18 18 19 19 19 19 20 20 20 20 20 20 20 20 19 19 19 19 19 19 19 18 19 19 19 19
21 20 20 20 20 20 20 19 18 18 18 18 18 18 18 18 18 18 19 19 19 19 20 20 20 20 21 21 21 20 20 20 20 20 20 20 19 19 19 19 18 18 18
20 20 20 20 20 19 19 18 18 18 18 17 18 18 17 17 17 17 18 19 19 19 20 21 21 21 22 22 21 21 21 21 21 21 20 20 20 20 20 19 18 18 18
19 19 19 19 19 19 18 18 18 18 17 17 17 17 17 17 17 18 19 19 20 20 21 22 22 22 22 23 22 21 21 21 21 21 21 21 20 20 20 19 18 18 18
19 19 19 19 18 18 18 18 18 18 18 17 17 17 18 18 18 19 19 20 20 20 21 22 23 23 23 23 23 22 22 22 22 22 21 21 20 20 19 18 18 18 18
20 20 19 19 19 18 18 18 18 18 17 18 18 18 19 19 19 20 20 20 20 20 21 22 23 24 23 23 23 22 22 21 22 22 22 21 20 19 19 18 18 18 18